Location: Kumla
(59.1265°N, 15.1401°E)
Time: 03:54:22
(UTC+01:00)

Vanguard 2 Rocket - Pass Details

Date: 06 December 2023
Orbit: 554 x 3310 km, 32.9° (Epoch: 20 February)

Event Time Altitude Azimuth Distance (km) Brightness Sun altitude
Rises 19:57:11 0° 266° (W) 7,295 12.4 -35.3°
Reaches altitude 10° 20:05:41 10° 247° (WSW) 6,195 11.6 -36.3°
Maximum altitude 20:13:57 15° 222° (SW) 5,503 11.0 -37.3°
Drops below altitude 10° 20:21:24 10° 195° (SSW) 5,439 10.7 -38.2°
Enters shadow 20:26:37 - 178° (S) 5,778 10.8 -38.9°
Sets 20:27:55 0° 174° (S) 5,909 - -39.0°
